Dodge City, KS

6:17 AM CDT on May 22, 2018 (GMT -0500)
Dodge City Regional

Weather History for KDDC - October, 2013

Change the Weather History Date:

Friday, October 11, 2013

  Actual Average Record
Temperature  
Mean Temperature 62 °F -  
Max Temperature 73 °F 73 °F 94 °F (1975)
Min Temperature 51 °F 46 °F 24 °F (1896)
Degree Days  
Heating Degree Days 3    
Growing Degree Days 12 (Base 50)    
Moisture  
Dew Point 42 °F    
Average Humidity 54    
Maximum Humidity 93    
Minimum Humidity 13    
Precipitation  
Precipitation 0.00 in - - ()
Sea Level Pressure  
Sea Level Pressure 29.74 in    
Wind  
Wind Speed 13 mph (SW)    
Max Wind Speed 20 mph    
Max Gust Speed 23 mph    
Visibility 10 miles    
Events      
Averages and records for this station are not official NWS values.
T = Trace of Precipitation, MM = Missing Value Source: NWS Daily Summary

Daily Weather History Graph

Daily Weather History Graph

Search for Another Location

Airport or City:

Astronomy

Oct. 11, 2013 Rise Set
Actual Time 7:44 AM CDT 7:07 PM CDT
Civil Twilight 7:18 AM CDT 7:33 PM CDT
Nautical Twilight 6:48 AM CDT 8:04 PM CDT
Astronomical Twilight 6:17 AM CDT 8:34 PM CDT
Moon 2:24 PM CDT (10/11) No Moon Set
Length of Visible Light 12h 15m
Length of Day
11h 22m
Waxing Crescent, 47% of the Moon is Illuminated
Oct 11
Waxing Crescent
Oct 11
First Quarter
Oct 18
Full
Oct 26
Last Quarter
Nov 3
New

Hourly Weather History & Observations

Time (CDT) Temp. Dew Point Humidity Pressure Visibility Wind Dir Wind Speed Gust Speed Precip Events Conditions
12:52 AM 61.0 °F 57.9 °F 90% 29.68 in 10.0 mi South 18.4 mph - 0.00 in   Overcast
1:13 AM 60.8 °F 57.2 °F 88% 29.75 in 10.0 mi South 19.6 mph - N/A   Overcast
1:52 AM 59.0 °F 55.0 °F 87% 29.66 in 10.0 mi South 16.1 mph - N/A   Mostly Cloudy
2:52 AM 61.0 °F 55.9 °F 83% 29.64 in 10.0 mi South 15.0 mph - N/A   Mostly Cloudy
3:52 AM 61.0 °F 57.9 °F 90% 29.61 in 10.0 mi South 18.4 mph - N/A   Mostly Cloudy
4:52 AM 59.0 °F 57.0 °F 93% 29.62 in 9.0 mi South 11.5 mph - N/A   Clear
5:52 AM 57.0 °F 45.0 °F 64% 29.64 in 10.0 mi SW 16.1 mph 23.0 mph N/A   Clear
6:52 AM 52.0 °F 41.0 °F 66% 29.66 in 10.0 mi SSW 11.5 mph - N/A   Clear
7:52 AM 52.0 °F 36.0 °F 54% 29.68 in 10.0 mi WSW 13.8 mph - N/A   Clear
8:38 AM 51.8 °F 35.6 °F 54% 29.75 in 10.0 mi SW 11.5 mph - N/A   Partly Cloudy
8:52 AM 53.1 °F 36.0 °F 52% 29.70 in 10.0 mi SW 9.2 mph - N/A   Clear
9:52 AM 57.9 °F 37.0 °F 46% 29.71 in 10.0 mi SW 12.7 mph - N/A   Clear
10:52 AM 63.0 °F 35.1 °F 35% 29.73 in 10.0 mi SW 10.4 mph - N/A   Clear
11:52 AM 66.0 °F 32.0 °F 28% 29.73 in 10.0 mi WSW 8.1 mph - N/A   Clear
12:52 PM 69.1 °F 33.1 °F 26% 29.73 in 10.0 mi WSW 4.6 mph - N/A   Clear
1:52 PM 70.0 °F 33.1 °F 26% 29.72 in 10.0 mi WSW 5.8 mph - N/A   Clear
2:52 PM 73.0 °F 32.0 °F 22% 29.72 in 10.0 mi NW 4.6 mph - N/A   Clear
3:52 PM 72.0 °F 32.0 °F 23% 29.73 in 9.0 mi Calm Calm - N/A   Clear
4:52 PM 73.0 °F 35.1 °F 25% 29.75 in 10.0 mi Variable 4.6 mph - N/A   Clear
5:52 PM 73.0 °F 34.0 °F 24% 29.78 in 10.0 mi NNE 5.8 mph - N/A   Clear
6:52 PM 70.0 °F 37.0 °F 30% 29.82 in 10.0 mi Calm Calm - N/A   Clear
7:52 PM 57.9 °F 46.0 °F 65% 29.87 in 10.0 mi North 9.2 mph - N/A   Clear
8:52 PM 57.0 °F 45.0 °F 64% 29.91 in 10.0 mi North 9.2 mph - N/A   Clear
9:52 PM 52.0 °F 45.0 °F 77% 29.94 in 10.0 mi North 8.1 mph - N/A   Clear
10:52 PM 52.0 °F 44.1 °F 74% 29.94 in 10.0 mi North 11.5 mph - N/A   Clear
11:52 PM 51.1 °F 43.0 °F 74% 29.95 in 10.0 mi North 11.5 mph - N/A   Clear